| time (UTC) | temp C | wind direction | speed KPH | gust KPH | rain 1hr cm | rain 24hr cm | rain mn cm | humidity % | barometer mb |
| 20260503020513 | 16 | 360 | 12.9 | 17.7 | 0.00 | 0.00 | 0.00 | 27 | 926.2 |
| 20260503020038 | 17 | 360 | 8.0 | 16.1 | 0.00 | 0.00 | 0.00 | 25 | 926.2 |
| 20260503015513 | 17 | 360 | 9.7 | 19.3 | 0.00 | 0.00 | 0.00 | 25 | 926.2 |
| 20260503015011 | 17 | 360 | 9.7 | 20.9 | 0.00 | 0.00 | 0.00 | 25 | 926.1 |
| 20260503014533 | 17 | 360 | 12.9 | 25.7 | 0.00 | 0.00 | 0.00 | 25 | 926.2 |
| 20260503014014 | 17 | 360 | 19.3 | 25.7 | 0.00 | 0.00 | 0.00 | 25 | 926.0 |
| 20260503013513 | 17 | 360 | 14.5 | 19.3 | 0.00 | 0.00 | 0.00 | 25 | 926.0 |
| 20260503013041 | 17 | 360 | 12.9 | 17.7 | 0.00 | 0.00 | 0.00 | 26 | 926.1 |
| 20260503012514 | 17 | 360 | 14.5 | 17.7 | 0.00 | 0.00 | 0.00 | 25 | 926.2 |
| 20260503012013 | 17 | 360 | 14.5 | 17.7 | 0.00 | 0.00 | 0.00 | 26 | 926.3 |
| 20260503011538 | 17 | 360 | 14.5 | 17.7 | 0.00 | 0.00 | 0.00 | 25 | 926.2 |
| 20260503011012 | 17 | 360 | 8.0 | 19.3 | 0.00 | 0.00 | 0.00 | 25 | 926.3 |
| 20260503010511 | 17 | 360 | 12.9 | 19.3 | 0.00 | 0.00 | 0.00 | 25 | 926.3 |
| 20260503010040 | 17 | 360 | 11.3 | 20.9 | 0.00 | 0.00 | 0.00 | 26 | 926.4 |
| 20260503005514 | 17 | 360 | 11.3 | 20.9 | 0.00 | 0.00 | 0.00 | 27 | 926.3 |
| 20260503005012 | 17 | 360 | 8.0 | 12.9 | 0.00 | 0.00 | 0.00 | 26 | 926.4 |
| 20260503004535 | 17 | 360 | 6.4 | 16.1 | 0.00 | 0.00 | 0.00 | 26 | 926.4 |
| 20260503004014 | 17 | 360 | 8.0 | 16.1 | 0.00 | 0.00 | 0.00 | 26 | 926.5 |
| 20260503003514 | 17 | 360 | 9.7 | 17.7 | 0.00 | 0.00 | 0.00 | 26 | 926.6 |
| 20260503003033 | 17 | 360 | 8.0 | 16.1 | 0.00 | 0.00 | 0.00 | 27 | 926.5 |
| 20260503002512 | 17 | 360 | 11.3 | 16.1 | 0.00 | 0.00 | 0.00 | 30 | 926.6 |
| 20260503002013 | 17 | 360 | 8.0 | 9.7 | 0.00 | 0.00 | 0.00 | 32 | 926.7 |
| 20260503001533 | 16 | 360 | 4.8 | 6.4 | 0.00 | 0.00 | 0.00 | 31 | 926.7 |
| 20260503001012 | 16 | 360 | 3.2 | 8.0 | 0.00 | 0.00 | 0.00 | 30 | 926.8 |
| 20260503000515 | 16 | 360 | 4.8 | 8.0 | 0.00 | 0.00 | 0.00 | 29 | 926.8 |
| 20260503000056 | 16 | 360 | 3.2 | 16.1 | 0.00 | 0.00 | 0.00 | 31 | 926.9 |
| 20260502235512 | 16 | 360 | 4.8 | 16.1 | 0.00 | 0.00 | 0.00 | 28 | 926.8 |
| 20260502235012 | 16 | 360 | 4.8 | 16.1 | 0.00 | 0.00 | 0.00 | 31 | 926.9 |
| 20260502234537 | 16 | 360 | 8.0 | 22.5 | 0.00 | 0.00 | 0.00 | 30 | 927.0 |
| 20260502234014 | 16 | 360 | 6.4 | 48.3 | 0.00 | 0.00 | 0.00 | 35 | 927.1 |
| 20260502233514 | 17 | 360 | 27.4 | 45.1 | 0.00 | 0.00 | 0.00 | 33 | 927.0 |
| 20260502233039 | 17 | 360 | 14.5 | 22.5 | 0.00 | 0.00 | 0.00 | 25 | 927.2 |
| 20260502232514 | 17 | 360 | 17.7 | 24.1 | 0.00 | 0.00 | 0.00 | 23 | 927.2 |
| 20260502232013 | 18 | 360 | 17.7 | 24.1 | 0.00 | 0.00 | 0.00 | 22 | 927.3 |
| 20260502231536 | 18 | 360 | 1.6 | 8.0 | 0.00 | 0.00 | 0.00 | 21 | 927.4 |
| 20260502231010 | 18 | 360 | 3.2 | 8.0 | 0.00 | 0.00 | 0.00 | 21 | 927.2 |
| 20260502230512 | 18 | 360 | 1.6 | 4.8 | 0.00 | 0.00 | 0.00 | 21 | 927.3 |
| 20260502230036 | 18 | 360 | 1.6 | 9.7 | 0.00 | 0.00 | 0.00 | 21 | 927.1 |
| 20260502225515 | 18 | 360 | 4.8 | 14.5 | 0.00 | 0.00 | 0.00 | 22 | 927.1 |
| 20260502225015 | 18 | 360 | 8.0 | 14.5 | 0.00 | 0.00 | 0.00 | 22 | 927.2 |
| 20260502224535 | 18 | 360 | 4.8 | 16.1 | 0.00 | 0.00 | 0.00 | 21 | 927.2 |
| 20260502224019 | 18 | 360 | 6.4 | 19.3 | 0.00 | 0.00 | 0.00 | 22 | 927.3 |
| 20260502223513 | 18 | 360 | 4.8 | 14.5 | 0.00 | 0.00 | 0.00 | 22 | 927.3 |
| 20260502223039 | 18 | 360 | 6.4 | 22.5 | 0.00 | 0.00 | 0.00 | 21 | 927.4 |
| 20260502222513 | 18 | 360 | 6.4 | 22.5 | 0.00 | 0.00 | 0.00 | 21 | 927.6 |
| 20260502222012 | 18 | 360 | 12.9 | 20.9 | 0.00 | 0.00 | 0.00 | 22 | 927.3 |
| 20260502221535 | 18 | 360 | 8.0 | 20.9 | 0.00 | 0.00 | 0.00 | 22 | 927.6 |
| 20260502221013 | 18 | 360 | 17.7 | 20.9 | 0.00 | 0.00 | 0.00 | 22 | 927.5 |
| 20260502220514 | 18 | 360 | 12.9 | 17.7 | 0.00 | 0.00 | 0.00 | 22 | 927.7 |
| 20260502220043 | 18 | 360 | 1.6 | 16.1 | 0.00 | 0.00 | 0.00 | 22 | 927.9 |
| 20260502215515 | 19 | 360 | 12.9 | 17.7 | 0.00 | 0.00 | 0.00 | 21 | 927.9 |
| 20260502215016 | 19 | 360 | 4.8 | 17.7 | 0.00 | 0.00 | 0.00 | 21 | 927.9 |
| 20260502214537 | 18 | 360 | 8.0 | 17.7 | 0.00 | 0.00 | 0.00 | 22 | 927.9 |
| 20260502214015 | 18 | 360 | 8.0 | 17.7 | 0.00 | 0.00 | 0.00 | 23 | 928.1 |
| 20260502213515 | 17 | 360 | 3.2 | 19.3 | 0.00 | 0.00 | 0.00 | 25 | 928.2 |
| 20260502213042 | 17 | 360 | 11.3 | 22.5 | 0.00 | 0.00 | 0.00 | 24 | 928.5 |
| 20260502212515 | 17 | 360 | 16.1 | 27.4 | 0.00 | 0.00 | 0.00 | 24 | 928.5 |
| 20260502212014 | 17 | 360 | 17.7 | 27.4 | 0.00 | 0.00 | 0.00 | 24 | 928.2 |
| 20260502211541 | 17 | 360 | 1.6 | 12.9 | 0.00 | 0.00 | 0.00 | 25 | 928.7 |
| 20260502211013 | 17 | 360 | 3.2 | 8.0 | 0.00 | 0.00 | 0.00 | 24 | 928.9 |
| 20260502210512 | 18 | 360 | 1.6 | 14.5 | 0.00 | 0.00 | 0.00 | 23 | 928.7 |
| 20260502210038 | 18 | 360 | 6.4 | 17.7 | 0.00 | 0.00 | 0.00 | 23 | 928.9 |
| 20260502205511 | 18 | 360 | 9.7 | 16.1 | 0.00 | 0.00 | 0.00 | 24 | 928.9 |
| 20260502205017 | 17 | 360 | 4.8 | 19.3 | 0.00 | 0.00 | 0.00 | 24 | 929.1 |
| 20260502204537 | 17 | 360 | 0.0 | 9.7 | 0.00 | 0.00 | 0.00 | 25 | 929.2 |
| 20260502204011 | 17 | 360 | 3.2 | 19.3 | 0.00 | 0.00 | 0.00 | 25 | 929.0 |
| 20260502203513 | 17 | 360 | 12.9 | 19.3 | 0.00 | 0.00 | 0.00 | 24 | 929.0 |
| 20260502203036 | 17 | 360 | 11.3 | 17.7 | 0.00 | 0.00 | 0.00 | 24 | 929.1 |
| 20260502202511 | 17 | 360 | 6.4 | 17.7 | 0.00 | 0.00 | 0.00 | 25 | 929.1 |
| 20260502202014 | 18 | 360 | 6.4 | 17.7 | 0.00 | 0.00 | 0.00 | 24 | 929.0 |
| 20260502201544 | 18 | 360 | 11.3 | 17.7 | 0.00 | 0.00 | 0.00 | 25 | 929.1 |
| 20260502201014 | 18 | 360 | 6.4 | 17.7 | 0.00 | 0.00 | 0.00 | 25 | 929.3 |
| 20260502200513 | 17 | 360 | 12.9 | 19.3 | 0.00 | 0.00 | 0.00 | 25 | 929.2 |
| 20260502200051 | 17 | 360 | 11.3 | 19.3 | 0.00 | 0.00 | 0.00 | 26 | 929.6 |
| 20260502195512 | 17 | 360 | 4.8 | 9.7 | 0.00 | 0.00 | 0.00 | 27 | 929.5 |
| 20260502195016 | 16 | 360 | 0.0 | 6.4 | 0.00 | 0.00 | 0.00 | 27 | 929.5 |
| 20260502194541 | 16 | 360 | 0.0 | 9.7 | 0.00 | 0.00 | 0.00 | 27 | 929.6 |
| 20260502194013 | 16 | 360 | 0.0 | 6.4 | 0.00 | 0.00 | 0.00 | 27 | 929.6 |
| 20260502193513 | 16 | 360 | 1.6 | 22.5 | 0.00 | 0.00 | 0.00 | 27 | 929.8 |
| 20260502193042 | 16 | 360 | 11.3 | 22.5 | 0.00 | 0.00 | 0.00 | 27 | 929.8 |
| 20260502192517 | 17 | 360 | 12.9 | 24.1 | 0.00 | 0.00 | 0.00 | 26 | 929.9 |
| 20260502192013 | 17 | 360 | 14.5 | 24.1 | 0.00 | 0.00 | 0.00 | 27 | 929.9 |
| 20260502191556 | 17 | 360 | 12.9 | 19.3 | 0.00 | 0.00 | 0.00 | 26 | 930.0 |
| 20260502191012 | 17 | 360 | 0.0 | 9.7 | 0.00 | 0.00 | 0.00 | 27 | 930.0 |
| 20260502190516 | 17 | 360 | 3.2 | 14.5 | 0.00 | 0.00 | 0.00 | 27 | 930.2 |
| 20260502190048 | 16 | 360 | 3.2 | 16.1 | 0.00 | 0.00 | 0.00 | 27 | 930.4 |
| 20260502185512 | 16 | 360 | 3.2 | 16.1 | 0.00 | 0.00 | 0.00 | 28 | 930.3 |
| 20260502185012 | 16 | 360 | 8.0 | 14.5 | 0.00 | 0.00 | 0.00 | 28 | 930.5 |
| 20260502184535 | 16 | 360 | 1.6 | 8.0 | 0.00 | 0.00 | 0.00 | 28 | 930.6 |
| 20260502184015 | 16 | 360 | 3.2 | 14.5 | 0.00 | 0.00 | 0.00 | 28 | 930.6 |
| 20260502183513 | 16 | 360 | 9.7 | 16.1 | 0.00 | 0.00 | 0.00 | 28 | 930.4 |
| 20260502183040 | 16 | 360 | 6.4 | 12.9 | 0.00 | 0.00 | 0.00 | 28 | 930.4 |
| 20260502182512 | 16 | 360 | 0.0 | 14.5 | 0.00 | 0.00 | 0.00 | 29 | 930.5 |
| 20260502182013 | 16 | 360 | 3.2 | 16.1 | 0.00 | 0.00 | 0.00 | 29 | 930.8 |
| 20260502181544 | 16 | 360 | 8.0 | 17.7 | 0.00 | 0.00 | 0.00 | 30 | 930.6 |
| 20260502181015 | 16 | 360 | 11.3 | 17.7 | 0.00 | 0.00 | 0.00 | 29 | 930.6 |
| 20260502180512 | 16 | 360 | 4.8 | 16.1 | 0.00 | 0.00 | 0.00 | 30 | 930.5 |
| 20260502170515 | 15 | 360 | 6.4 | 12.9 | 0.00 | 0.00 | 0.00 | 31 | 930.8 |
| 20260502164015 | 14 | 360 | 4.8 | 14.5 | 0.00 | 0.00 | 0.00 | 33 | 930.7 |
| 20260502163515 | 14 | 360 | 8.0 | 17.7 | 0.00 | 0.00 | 0.00 | 33 | 930.6 |
| 20260502163049 | 15 | 360 | 9.7 | 17.7 | 0.00 | 0.00 | 0.00 | 33 | 930.9 |
| 20260502162515 | 14 | 360 | 3.2 | 20.9 | 0.00 | 0.00 | 0.00 | 33 | 930.9 |
| 20260502162016 | 14 | 360 | 4.8 | 20.9 | 0.00 | 0.00 | 0.00 | 35 | 930.9 |
| 20260502161539 | 14 | 360 | 12.9 | 17.7 | 0.00 | 0.00 | 0.00 | 34 | 931.0 |
| 20260502161014 | 14 | 360 | 6.4 | 16.1 | 0.00 | 0.00 | 0.00 | 34 | 930.9 |
| 20260502160517 | 13 | 360 | 4.8 | 20.9 | 0.00 | 0.00 | 0.00 | 35 | 930.8 |
| 20260502152015 | 12 | 360 | 11.3 | 19.3 | 0.00 | 0.00 | 0.00 | 39 | 931.1 |
| 20260502151556 | 12 | 360 | 9.7 | 19.3 | 0.00 | 0.00 | 0.00 | 41 | 931.1 |
| 20260502151015 | 12 | 360 | 11.3 | 17.7 | 0.00 | 0.00 | 0.00 | 41 | 931.1 |
| 20260502150515 | 11 | 360 | 11.3 | 20.9 | 0.00 | 0.00 | 0.00 | 42 | 931.0 |
| 20260502130516 | 6 | 360 | 14.5 | 17.7 | 0.00 | 0.00 | 0.00 | 55 | 930.5 |
| 20260502123516 | 6 | 360 | 8.0 | 12.9 | 0.00 | 0.00 | 0.00 | 50 | 930.3 |
| 20260502123041 | 6 | 360 | 6.4 | 8.0 | 0.00 | 0.00 | 0.00 | 51 | 930.3 |
| 20260502122513 | 6 | 360 | 4.8 | 9.7 | 0.00 | 0.00 | 0.00 | 50 | 930.1 |
| 20260502122015 | 6 | 360 | 6.4 | 14.5 | 0.00 | 0.00 | 0.00 | 50 | 929.9 |
| 20260502121544 | 7 | 360 | 9.7 | 16.1 | 0.00 | 0.00 | 0.00 | 50 | 930.0 |
| 20260502121016 | 7 | 360 | 11.3 | 19.3 | 0.00 | 0.00 | 0.00 | 50 | 929.8 |
| 20260502120515 | 7 | 360 | 14.5 | 20.9 | 0.00 | 0.00 | 0.00 | 49 | 929.8 |
| 20260502115514 | 7 | 360 | 17.7 | 22.5 | 0.00 | 0.00 | 0.00 | 49 | 929.6 |
| 20260502115203 | 7 | 360 | 19.3 | 22.5 | 0.00 | 0.00 | 0.00 | 49 | 929.6 |
| 20260502114529 | 7 | 360 | 16.1 | 22.5 | 0.00 | 0.00 | 0.00 | 48 | 929.5 |
| 20260502114012 | 7 | 360 | 17.7 | 25.7 | 0.00 | 0.00 | 0.00 | 48 | 929.4 |
| 20260502113515 | 7 | 360 | 17.7 | 25.7 | 0.00 | 0.00 | 0.00 | 48 | 929.3 |
| 20260502113048 | 7 | 360 | 19.3 | 27.4 | 0.00 | 0.00 | 0.00 | 47 | 929.5 |
| 20260502112512 | 8 | 360 | 24.1 | 27.4 | 0.00 | 0.00 | 0.00 | 47 | 929.1 |
| 20260502112012 | 8 | 360 | 22.5 | 30.6 | 0.00 | 0.00 | 0.00 | 46 | 929.2 |
| 20260502111535 | 8 | 360 | 25.7 | 30.6 | 0.00 | 0.00 | 0.00 | 46 | 929.2 |
| 20260502111012 | 8 | 360 | 22.5 | 30.6 | 0.00 | 0.00 | 0.00 | 44 | 929.1 |
| 20260502110514 | 8 | 360 | 22.5 | 30.6 | 0.00 | 0.00 | 0.00 | 44 | 929.0 |
| 20260502110037 | 8 | 360 | 20.9 | 30.6 | 0.00 | 0.00 | 0.00 | 44 | 929.0 |
| 20260502105515 | 8 | 360 | 24.1 | 35.4 | 0.00 | 0.00 | 0.00 | 44 | 928.9 |
| 20260502105015 | 8 | 360 | 25.7 | 35.4 | 0.00 | 0.00 | 0.00 | 43 | 928.9 |
| 20260502104535 | 9 | 360 | 25.7 | 33.8 | 0.00 | 0.00 | 0.00 | 42 | 928.8 |
| 20260502104015 | 9 | 360 | 27.4 | 37.0 | 0.00 | 0.00 | 0.00 | 42 | 928.7 |
| 20260502103510 | 10 | 360 | 30.6 | 37.0 | 0.00 | 0.00 | 0.00 | 41 | 928.6 |
| 20260502103031 | 10 | 360 | 29.0 | 37.0 | 0.00 | 0.00 | 0.00 | 41 | 928.5 |
| 20260502102514 | 9 | 360 | 32.2 | 37.0 | 0.00 | 0.00 | 0.00 | 42 | 928.4 |
| 20260502102014 | 8 | 360 | 30.6 | 37.0 | 0.00 | 0.00 | 0.00 | 43 | 928.2 |
| 20260502101531 | 8 | 360 | 29.0 | 32.2 | 0.00 | 0.00 | 0.00 | 44 | 928.1 |
| 20260502101012 | 8 | 360 | 20.9 | 27.4 | 0.00 | 0.00 | 0.00 | 44 | 928.2 |
| 20260502100511 | 8 | 360 | 20.9 | 25.7 | 0.00 | 0.00 | 0.00 | 43 | 928.3 |
| 20260502091534 | 9 | 360 | 25.7 | 33.8 | 0.00 | 0.00 | 0.00 | 43 | 927.3 |
| 20260502091014 | 9 | 360 | 27.4 | 35.4 | 0.00 | 0.00 | 0.00 | 42 | 927.3 |
| 20260502090516 | 10 | 360 | 27.4 | 41.8 | 0.00 | 0.00 | 0.00 | 42 | 927.2 |
| 20260502071535 | 11 | 360 | 14.5 | 22.5 | 0.00 | 0.00 | 0.00 | 33 | 926.9 |
| 20260502071011 | 11 | 360 | 14.5 | 22.5 | 0.00 | 0.00 | 0.00 | 32 | 926.8 |
| 20260502070513 | 11 | 360 | 16.1 | 20.9 | 0.00 | 0.00 | 0.00 | 32 | 926.8 |
| 20260502070055 | 11 | 360 | 16.1 | 20.9 | 0.00 | 0.00 | 0.00 | 32 | 926.9 |
| 20260502065513 | 11 | 360 | 16.1 | 22.5 | 0.00 | 0.00 | 0.00 | 32 | 926.7 |
| 20260502065015 | 11 | 360 | 17.7 | 22.5 | 0.00 | 0.00 | 0.00 | 32 | 926.9 |
| 20260502064553 | 11 | 360 | 17.7 | 20.9 | 0.00 | 0.00 | 0.00 | 32 | 926.9 |
| 20260502064016 | 11 | 360 | 14.5 | 19.3 | 0.00 | 0.00 | 0.00 | 31 | 926.8 |
| 20260502063511 | 11 | 360 | 12.9 | 16.1 | 0.00 | 0.00 | 0.00 | 32 | 926.7 |
| 20260502063042 | 11 | 360 | 12.9 | 16.1 | 0.00 | 0.00 | 0.00 | 31 | 926.8 |
| 20260502062512 | 11 | 360 | 11.3 | 16.1 | 0.00 | 0.00 | 0.00 | 30 | 926.6 |
| 20260502062015 | 11 | 360 | 11.3 | 14.5 | 0.00 | 0.00 | 0.00 | 30 | 926.7 |
| 20260502061533 | 11 | 360 | 11.3 | 14.5 | 0.00 | 0.00 | 0.00 | 29 | 926.6 |
| 20260502061017 | 11 | 360 | 11.3 | 16.1 | 0.00 | 0.00 | 0.00 | 29 | 926.8 |
| 20260502060515 | 12 | 360 | 12.9 | 17.7 | 0.00 | 0.00 | 0.00 | 28 | 926.7 |
| 20260502060038 | 12 | 360 | 14.5 | 17.7 | 0.00 | 0.00 | 0.00 | 29 | 926.6 |
| 20260502055516 | 12 | 360 | 14.5 | 17.7 | 0.00 | 0.00 | 0.00 | 29 | 926.7 |
| 20260502055012 | 12 | 360 | 14.5 | 17.7 | 0.00 | 0.00 | 0.00 | 29 | 926.8 |
| 20260502054538 | 11 | 360 | 14.5 | 17.7 | 0.00 | 0.00 | 0.00 | 29 | 926.7 |
| 20260502054012 | 11 | 360 | 12.9 | 17.7 | 0.00 | 0.00 | 0.00 | 29 | 926.7 |
| 20260502053512 | 11 | 360 | 14.5 | 17.7 | 0.00 | 0.00 | 0.00 | 30 | 926.7 |
| 20260502053038 | 11 | 360 | 12.9 | 17.7 | 0.00 | 0.00 | 0.00 | 30 | 926.7 |
| 20260502052515 | 11 | 360 | 12.9 | 17.7 | 0.00 | 0.00 | 0.00 | 29 | 926.7 |
| 20260502052015 | 11 | 360 | 14.5 | 22.5 | 0.00 | 0.00 | 0.00 | 29 | 926.8 |
| 20260502051537 | 11 | 360 | 16.1 | 24.1 | 0.00 | 0.00 | 0.00 | 29 | 926.7 |
| 20260502051018 | 11 | 360 | 19.3 | 24.1 | 0.00 | 0.00 | 0.00 | 29 | 926.7 |
| 20260502050517 | 11 | 360 | 16.1 | 24.1 | 0.00 | 0.00 | 0.00 | 29 | 926.7 |
| 20260502050039 | 11 | 360 | 12.9 | 17.7 | 0.00 | 0.00 | 0.00 | 27 | 926.7 |
| 20260502045512 | 11 | 360 | 8.0 | 14.5 | 0.00 | 0.00 | 0.00 | 27 | 926.6 |
| 20260502045014 | 11 | 360 | 11.3 | 14.5 | 0.00 | 0.00 | 0.00 | 27 | 926.6 |
| 20260502044542 | 11 | 360 | 9.7 | 12.9 | 0.00 | 0.00 | 0.00 | 27 | 926.6 |
| 20260502044015 | 11 | 360 | 8.0 | 14.5 | 0.00 | 0.00 | 0.00 | 26 | 926.7 |
| 20260502043515 | 11 | 360 | 8.0 | 14.5 | 0.00 | 0.00 | 0.00 | 25 | 926.7 |
| 20260502043039 | 12 | 360 | 8.0 | 9.7 | 0.00 | 0.00 | 0.00 | 25 | 926.6 |
| 20260502042512 | 12 | 360 | 8.0 | 9.7 | 0.00 | 0.00 | 0.00 | 25 | 926.5 |
| 20260502042015 | 12 | 360 | 8.0 | 12.9 | 0.00 | 0.00 | 0.00 | 25 | 926.4 |
| 20260502041545 | 12 | 360 | 8.0 | 12.9 | 0.00 | 0.00 | 0.00 | 25 | 926.4 |
| 20260502041014 | 12 | 360 | 9.7 | 12.9 | 0.00 | 0.00 | 0.00 | 25 | 926.5 |
| 20260502040515 | 12 | 360 | 3.2 | 12.9 | 0.00 | 0.00 | 0.00 | 23 | 926.4 |
| 20260502040038 | 12 | 360 | 9.7 | 14.5 | 0.00 | 0.00 | 0.00 | 23 | 926.4 |
| 20260502035517 | 13 | 360 | 9.7 | 14.5 | 0.00 | 0.00 | 0.00 | 23 | 926.5 |
| 20260502035017 | 13 | 360 | 8.0 | 14.5 | 0.00 | 0.00 | 0.00 | 22 | 926.5 |
| 20260502034543 | 13 | 360 | 9.7 | 14.5 | 0.00 | 0.00 | 0.00 | 21 | 926.3 |
| 20260502034019 | 13 | 360 | 8.0 | 12.9 | 0.00 | 0.00 | 0.00 | 21 | 926.3 |
| 20260502033516 | 14 | 360 | 8.0 | 16.1 | 0.00 | 0.00 | 0.00 | 20 | 926.3 |
| 20260502033039 | 14 | 360 | 9.7 | 17.7 | 0.00 | 0.00 | 0.00 | 19 | 926.3 |
| 20260502032514 | 14 | 360 | 12.9 | 17.7 | 0.00 | 0.00 | 0.00 | 20 | 926.3 |
| 20260502032017 | 15 | 360 | 12.9 | 17.7 | 0.00 | 0.00 | 0.00 | 19 | 926.2 |
| 20260502031537 | 15 | 360 | 12.9 | 17.7 | 0.00 | 0.00 | 0.00 | 18 | 926.1 |
| 20260502031015 | 15 | 360 | 14.5 | 17.7 | 0.00 | 0.00 | 0.00 | 18 | 926.1 |
| 20260502030514 | 15 | 360 | 12.9 | 16.1 | 0.00 | 0.00 | 0.00 | 18 | 925.9 |
| 20260502030039 | 15 | 360 | 9.7 | 16.1 | 0.00 | 0.00 | 0.00 | 17 | 925.8 |
| 20260502025515 | 16 | 360 | 8.0 | 22.5 | 0.00 | 0.00 | 0.00 | 16 | 926.0 |
| 20260502025015 | 16 | 360 | 14.5 | 24.1 | 0.00 | 0.00 | 0.00 | 16 | 926.1 |
| 20260502024558 | 17 | 360 | 17.7 | 24.1 | 0.00 | 0.00 | 0.00 | 15 | 926.0 |
| 20260502024018 | 17 | 360 | 17.7 | 25.7 | 0.00 | 0.00 | 0.00 | 15 | 925.9 |
| 20260502023514 | 17 | 360 | 19.3 | 27.4 | 0.00 | 0.00 | 0.00 | 14 | 925.9 |
| 20260502023057 | 17 | 360 | 20.9 | 27.4 | 0.00 | 0.00 | 0.00 | 14 | 926.0 |
| 20260502022515 | 17 | 360 | 17.7 | 24.1 | 0.00 | 0.00 | 0.00 | 13 | 925.8 |
| 20260502022017 | 18 | 360 | 17.7 | 22.5 | 0.00 | 0.00 | 0.00 | 13 | 925.8 |
| 20260502021548 | 18 | 360 | 16.1 | 22.5 | 0.00 | 0.00 | 0.00 | 12 | 925.8 |
| 20260502021015 | 18 | 360 | 17.7 | 25.7 | 0.00 | 0.00 | 0.00 | 11 | 926.0 |